Wind_Speed
10 10 10 10 10 10 9 8 7 6 6 6 5 4 4 3 3 3 3 3 3 3 4 4 4 4 5 5 5 4 3 3 3 3 3 3 3 3 3 3 3 4 4
10 11 10 11 11 11 11 10 8 7 7 6 5 4 4 3 3 3 3 3 3 3 4 4 4 4 5 5 5 4 3 3 3 3 4 3 4 3 3 3 3 3 3
11 11 11 11 11 11 10 10 9 8 7 6 5 6 5 4 3 3 3 2 2 3 4 4 4 4 5 5 5 4 3 3 3 3 4 4 4 3 3 3 3 2 2
11 11 11 11 11 11 10 9 9 9 8 7 6 5 5 4 4 3 2 2 2 3 3 4 4 5 5 5 5 4 4 3 3 3 4 4 3 3 3 3 3 2 2
11 11 11 11 10 10 10 9 8 8 8 7 7 6 5 4 3 3 2 2 2 2 2 3 4 4 4 5 5 5 4 4 4 3 4 4 4 3 3 2 2 2 2
11 11 10 10 10 9 9 9 8 8 8 8 7 6 5 4 3 2 2 1 1 1 1 3 4 5 5 4 4 5 4 5 4 4 4 4 4 4 3 3 2 2 2
11 11 10 9 9 9 9 9 8 8 8 7 7 6 4 3 3 2 2 0 1 1 1 3 4 5 5 5 5 5 4 4 4 4 4 4 4 4 4 3 3 3 3
10 10 10 9 9 9 8 8 8 8 7 7 6 6 5 4 3 3 2 1 0 1 2 3 4 6 5 5 5 5 5 5 5 4 4 4 4 4 4 3 3 4 3
11 10 10 9 8 8 8 8 8 8 8 7 7 6 6 5 3 3 2 1 1 0 1 2 3 5 5 6 5 5 5 5 5 5 5 4 4 5 4 4 3 4 4
11 10 10 9 9 8 8 8 8 8 7 7 7 7 6 5 4 4 3 2 1 1 1 1 2 4 5 5 5 6 6 5 5 5 5 5 5 5 5 4 4 4 4
12 11 11 9 9 9 8 8 8 7 7 7 6 7 7 7 6 4 3 3 2 2 1 1 1 2 3 5 6 6 7 7 6 5 5 5 5 5 5 5 4 4 4
11 11 11 10 9 9 9 9 8 8 8 8 8 7 8 7 7 6 4 3 3 3 2 2 3 3 3 4 6 6 6 6 6 6 6 5 5 6 6 5 5 5 5
11 11 11 10 9 9 9 9 9 9 9 8 8 8 8 8 7 5 5 4 4 4 3 3 4 4 4 4 5 6 6 7 7 7 7 6 6 6 7 7 7 7 7
11 11 11 10 9 9 10 10 9 10 10 9 8 7 8 8 7 6 5 5 5 4 3 4 4 4 4 4 5 6 6 7 8 8 8 8 7 7 8 7 8 8 8
11 11 11 11 10 9 9 9 9 10 10 10 9 8 8 8 8 7 5 5 5 4 4 4 4 4 4 5 6 6 7 8 9 8 8 8 8 8 9 9 8 9 9
11 10 10 10 10 10 9 9 9 10 10 9 9 9 8 8 8 8 6 5 6 5 5 5 5 5 5 6 7 7 8 8 8 9 10 9 10 10 10 10 10 9 10
11 10 10 10 10 10 10 9 9 9 9 9 9 9 8 8 8 8 7 7 6 6 6 5 6 6 7 7 7 8 9 8 9 10 11 11 11 10 10 11 11 11 11
10 11 10 10 9 10 10 9 9 9 9 9 9 9 9 9 9 8 8 7 7 6 6 6 6 7 7 7 7 8 8 8 8 9 10 11 12 11 11 11 11 11 12
9 9 10 10 10 10 10 10 10 10 10 10 10 10 10 9 9 9 9 8 7 7 6 6 7 7 8 8 7 8 9 10 9 9 10 11 11 11 11 11 12 12 12
9 9 9 9 10 11 10 11 11 11 11 11 11 11 11 11 10 9 9 9 8 7 8 8 8 8 8 8 8 8 9 10 10 10 10 11 11 11 11 12 12 12 13
9 9 9 9 10 10 11 10 11 10 11 11 11 12 12 11 10 10 10 9 8 8 9 9 9 8 8 8 8 8 8 9 10 10 10 10 10 10 10 10 10 11 12
10 8 8 9 9 10 10 10 10 11 11 11 12 13 12 11 10 10 9 9 10 10 10 10 9 9 8 8 8 8 8 9 10 10 10 10 10 10 11 11 11 13 13
9 8 8 9 9 9 9 9 10 11 11 12 12 12 12 11 11 11 9 10 10 11 10 11 9 9 9 9 9 9 9 10 10 10 10 11 12 12 12 12 12 13 13
8 8 8 8 9 9 9 9 10 11 12 12 12 13 12 12 12 11 11 11 11 11 11 10 10 10 10 10 10 10 10 11 10 10 10 11 12 12 13 13 13 13 13
9 8 8 8 9 9 9 10 11 11 12 12 13 13 13 13 13 12 12 12 12 12 12 12 11 12 11 11 11 11 11 10 10 10 11 12 12 13 13 13 14 14 14
10 9 9 9 9 10 10 11 12 13 13 14 14 14 14 14 14 14 14 14 14 14 13 14 14 14 13 12 12 12 12 12 12 12 13 14 14 15 15 15 15 16 16
Wind_Direction
62 63 66 67 63 62 66 70 69 68 71 87 96 105 108 111 122 136 143 154 164 168 174 183 182 169 168 166 168 173 175 161 151 146 153 152 157 159 156 152 140 133 129
67 67 68 69 67 65 63 66 68 69 73 82 88 87 90 97 103 119 134 144 157 162 169 177 175 170 172 172 177 175 166 162 163 163 153 161 167 160 155 155 149 143 141
68 68 70 69 68 67 63 62 62 64 65 70 81 88 83 87 96 101 111 119 152 170 176 180 183 176 174 178 186 185 170 164 159 158 164 164 162 162 163 165 154 142 142
68 68 68 68 67 66 64 61 58 59 63 67 71 82 84 84 95 100 98 93 130 161 183 188 190 185 183 186 190 184 181 177 166 165 168 178 177 170 169 163 153 140 140
66 65 66 65 63 61 62 60 59 60 61 61 61 64 71 75 88 93 92 89 113 148 182 189 186 185 187 191 187 185 190 195 192 188 183 190 192 187 180 166 148 142 150
63 63 64 65 62 60 62 61 59 61 60 58 56 56 57 62 83 87 79 96 102 148 166 177 182 190 193 186 189 194 197 195 199 206 200 206 212 208 204 192 179 173 166
60 63 62 63 63 62 61 60 59 59 57 55 54 50 48 42 39 37 35 158 193 181 198 195 195 194 189 194 202 209 213 212 210 215 217 220 214 207 206 199 196 191 189
58 61 61 60 61 60 59 57 54 53 49 46 48 45 43 36 26 9 358 2 320 264 231 221 209 205 206 209 208 210 217 218 214 214 215 221 222 213 199 202 207 206 205
55 56 59 58 58 56 53 51 45 43 40 38 36 35 35 28 24 13 359 358 326 317 229 216 218 221 220 219 216 214 217 218 215 220 220 223 222 216 211 213 216 218 212
54 58 58 59 60 57 51 45 39 36 34 32 32 31 28 23 22 16 4 350 323 310 260 239 233 228 223 224 225 225 223 220 217 223 228 234 231 229 226 222 227 225 216
51 55 54 59 60 56 52 44 36 31 27 24 23 25 26 26 25 14 355 346 326 311 300 289 258 245 228 224 227 234 232 226 219 228 237 241 238 236 238 237 234 233 228
51 55 52 53 52 48 47 40 32 30 27 24 24 22 25 20 20 15 5 349 328 320 311 296 295 283 252 236 232 234 234 226 228 235 233 237 242 237 237 238 238 237 231
52 55 53 52 48 43 41 37 34 31 26 23 25 27 22 18 16 13 8 358 342 327 307 293 297 288 275 259 245 242 245 236 234 235 233 235 238 240 241 239 242 241 236
47 52 53 48 42 41 40 36 31 28 24 21 23 22 19 16 14 14 10 1 343 329 320 311 300 293 285 268 257 252 251 244 238 239 239 237 241 246 245 242 245 244 241
49 50 48 44 39 37 34 30 26 21 19 18 19 20 17 14 11 5 1 357 355 338 321 322 319 306 293 281 274 265 263 247 243 243 243 245 248 252 250 246 250 251 243
43 42 40 38 35 31 27 25 21 17 16 14 11 10 8 8 9 3 357 352 350 345 327 315 312 303 296 286 281 271 268 261 254 251 251 251 252 253 251 249 251 253 248
35 35 35 34 29 26 23 18 15 14 11 9 6 6 2 359 1 0 357 353 347 334 330 323 318 311 300 294 284 276 269 267 262 260 255 254 254 253 252 253 252 253 252
28 29 29 28 23 22 20 15 11 8 6 6 4 1 358 357 356 358 355 355 351 340 334 328 320 315 309 299 286 274 265 263 263 264 260 256 256 256 256 258 258 256 257
18 16 19 21 19 14 12 10 6 5 2 4 5 2 359 355 355 358 356 352 349 346 341 335 325 317 308 304 294 280 268 265 266 263 263 260 261 261 258 259 260 259 258
9 5 6 10 14 12 9 10 9 8 7 6 3 3 1 360 358 355 354 351 345 338 339 337 329 321 311 304 297 289 280 275 271 264 262 261 260 263 263 261 261 263 261
356 358 1 358 0 3 3 5 4 3 3 4 3 1 0 356 355 351 351 351 350 345 339 335 332 321 315 310 305 295 288 282 274 272 267 264 262 262 264 265 265 264 265
346 349 351 350 349 353 355 356 358 356 356 357 357 355 353 351 354 353 348 350 346 342 339 333 330 325 320 314 307 302 293 287 278 272 266 263 262 266 267 265 266 264 264
344 341 341 346 346 347 347 347 349 349 348 347 348 350 346 344 347 351 346 341 339 337 332 330 326 321 318 309 302 299 285 278 279 276 270 267 269 271 272 271 269 268 267
330 325 327 334 339 341 341 339 339 338 340 342 342 343 340 339 337 338 340 337 334 332 330 328 321 319 315 311 305 301 293 280 274 275 283 279 277 275 277 278 277 271 273
323 319 318 319 324 327 328 328 330 329 328 329 330 333 333 332 329 327 327 327 325 324 326 321 316 314 312 310 302 297 294 288 280 280 282 280 278 278 278 278 278 276 275
309 308 309 308 314 315 317 320 322 322 323 323 323 325 325 326 324 321 319 319 317 316 317 316 313 310 306 304 301 296 292 287 284 280 279 278 277 278 277 277 277 275 275
Height
5892 5891 5890 5890 5889 5889 5889 5889 5888 5888 5888 5888 5888 5888 5888 5888 5888 5889 5889 5890 5890 5890 5890 5891 5891 5892 5892 5893 5893 5894 5894 5894 5894 5894 5894 5894 5894 5894 5894 5894 5894 5894 5894
5893 5892 5891 5891 5891 5891 5890 5890 5890 5890 5890 5890 5890 5889 5889 5889 5889 5889 5890 5890 5890 5890 5890 5891 5891 5892 5892 5893 5893 5894 5894 5894 5894 5894 5894 5894 5894 5894 5894 5894 5894 5894 5894
5894 5893 5893 5893 5892 5892 5892 5892 5891 5891 5891 5891 5891 5891 5890 5890 5890 5890 5890 5891 5890 5890 5891 5891 5891 5892 5892 5893 5893 5894 5894 5894 5894 5894 5894 5894 5894 5894 5894 5894 5894 5894 5894
5895 5895 5895 5894 5894 5894 5894 5893 5893 5892 5892 5892 5892 5891 5891 5891 5891 5891 5891 5891 5891 5891 5891 5891 5892 5892 5892 5893 5893 5893 5894 5894 5894 5894 5894 5894 5894 5894 5894 5894 5894 5894 5894
5897 5897 5896 5896 5896 5895 5895 5895 5894 5894 5893 5893 5892 5892 5892 5892 5892 5892 5892 5891 5891 5891 5891 5892 5892 5892 5892 5893 5893 5893 5893 5894 5894 5894 5894 5894 5894 5894 5894 5894 5894 5894 5894
5899 5898 5898 5898 5897 5897 5896 5896 5895 5895 5894 5894 5894 5893 5893 5893 5892 5892 5892 5892 5892 5891 5891 5891 5892 5892 5892 5892 5892 5893 5893 5893 5894 5894 5894 5894 5894 5894 5894 5894 5894 5894 5894
5901 5900 5899 5899 5899 5898 5898 5897 5896 5896 5895 5895 5894 5894 5894 5893 5893 5892 5892 5892 5891 5891 5891 5891 5891 5892 5892 5892 5892 5892 5893 5893 5893 5893 5893 5893 5893 5894 5894 5894 5894 5894 5894
5902 5901 5901 5900 5900 5900 5899 5898 5898 5897 5896 5896 5895 5895 5894 5893 5893 5892 5892 5892 5891 5891 5890 5891 5891 5891 5891 5891 5892 5892 5892 5892 5893 5893 5893 5893 5893 5893 5893 5893 5894 5894 5894
5903 5902 5902 5901 5901 5901 5900 5900 5899 5898 5897 5897 5896 5895 5894 5894 5893 5892 5892 5892 5891 5891 5891 5890 5890 5891 5891 5891 5891 5891 5891 5892 5892 5892 5892 5892 5892 5893 5893 5893 5893 5893 5893
5904 5903 5903 5902 5902 5902 5901 5901 5900 5899 5898 5897 5896 5895 5895 5894 5893 5892 5892 5891 5891 5891 5891 5890 5890 5890 5890 5890 5890 5890 5890 5891 5891 5891 5891 5892 5892 5892 5892 5892 5893 5892 5893
5905 5904 5904 5903 5903 5902 5902 5901 5901 5900 5898 5897 5896 5896 5895 5894 5893 5892 5892 5891 5891 5890 5890 5890 5890 5889 5889 5889 5889 5889 5889 5890 5890 5890 5890 5891 5891 5891 5892 5892 5892 5892 5892
5906 5905 5905 5904 5904 5903 5902 5902 5901 5900 5899 5897 5896 5896 5895 5894 5893 5892 5891 5891 5890 5890 5889 5889 5889 5889 5889 5888 5888 5888 5888 5888 5889 5889 5889 5889 5890 5890 5891 5891 5891 5891 5891
5908 5907 5906 5905 5905 5904 5903 5902 5901 5900 5899 5898 5897 5896 5895 5894 5893 5892 5891 5890 5889 5889 5888 5888 5888 5888 5888 5887 5887 5887 5887 5887 5887 5887 5888 5888 5888 5889 5889 5889 5890 5890 5890
5909 5908 5907 5907 5906 5905 5904 5903 5902 5901 5900 5898 5897 5896 5895 5894 5893 5892 5891 5890 5889 5888 5887 5887 5887 5887 5886 5886 5886 5885 5885 5885 5886 5886 5887 5887 5887 5887 5887 5888 5888 5888 5888
5910 5909 5908 5907 5906 5906 5905 5904 5903 5901 5900 5898 5897 5896 5895 5894 5893 5892 5891 5890 5888 5888 5887 5886 5886 5886 5885 5885 5884 5884 5884 5884 5884 5884 5885 5885 5885 5885 5885 5886 5886 5886 5886
5912 5911 5909 5908 5907 5906 5905 5904 5903 5902 5900 5899 5898 5896 5895 5894 5893 5891 5890 5889 5888 5887 5887 5886 5885 5885 5884 5883 5882 5882 5882 5882 5881 5882 5882 5883 5883 5883 5883 5883 5884 5884 5884
5913 5912 5910 5909 5908 5907 5906 5905 5903 5902 5901 5899 5898 5896 5895 5894 5892 5891 5889 5888 5887 5886 5886 5885 5884 5883 5882 5881 5881 5880 5880 5880 5880 5880 5880 5880 5881 5881 5881 5881 5881 5881 5882
5913 5912 5911 5910 5908 5907 5906 5905 5904 5902 5901 5899 5897 5896 5894 5893 5891 5890 5889 5888 5886 5885 5884 5883 5882 5881 5880 5880 5879 5878 5878 5878 5878 5878 5878 5878 5878 5878 5878 5878 5878 5879 5879
5914 5913 5911 5910 5909 5907 5906 5905 5903 5902 5900 5898 5897 5895 5894 5892 5891 5889 5888 5886 5885 5884 5883 5882 5880 5880 5879 5878 5877 5876 5876 5876 5876 5876 5875 5875 5875 5875 5876 5876 5876 5876 5876
5914 5912 5911 5910 5908 5907 5906 5905 5903 5901 5899 5898 5896 5894 5893 5891 5890 5888 5887 5886 5884 5883 5882 5880 5879 5878 5877 5876 5875 5874 5874 5873 5873 5873 5873 5873 5873 5873 5873 5873 5873 5873 5872
5913 5912 5911 5909 5908 5907 5905 5904 5903 5901 5899 5897 5896 5894 5892 5890 5889 5887 5886 5885 5883 5882 5880 5879 5878 5877 5876 5874 5874 5873 5872 5871 5870 5870 5870 5870 5870 5870 5870 5870 5870 5869 5869
5911 5911 5910 5909 5907 5906 5905 5903 5902 5900 5898 5897 5895 5893 5891 5890 5888 5886 5885 5884 5882 5880 5879 5878 5876 5875 5874 5873 5872 5871 5870 5869 5868 5868 5867 5867 5867 5867 5867 5866 5866 5866 5866
5910 5910 5909 5908 5906 5905 5903 5902 5901 5899 5898 5896 5894 5892 5890 5888 5887 5885 5884 5883 5881 5879 5878 5876 5874 5873 5872 5871 5870 5869 5868 5867 5866 5866 5865 5864 5864 5864 5864 5863 5863 5863 5862
5910 5909 5908 5907 5905 5904 5902 5901 5899 5898 5896 5895 5893 5891 5889 5887 5886 5884 5882 5881 5879 5878 5876 5874 5872 5871 5869 5868 5867 5866 5865 5864 5864 5863 5863 5862 5861 5861 5860 5860 5860 5859 5859
5908 5907 5906 5905 5903 5902 5901 5899 5898 5896 5895 5893 5891 5889 5887 5885 5884 5882 5880 5879 5877 5875 5873 5872 5870 5868 5867 5865 5864 5863 5862 5861 5860 5860 5860 5859 5858 5858 5857 5857 5856 5855 5855
5906 5905 5904 5902 5901 5899 5898 5897 5895 5894 5892 5891 5889 5887 5885 5883 5881 5879 5878 5876 5874 5872 5870 5869 5867 5865 5864 5862 5860 5859 5858 5857 5856 5856 5856 5855 5854 5853 5852 5852 5851 5851 5850